Wind_Speed
21 20 17 14 14 14 12 9 8 8 6 5 5 4 3 3 3 2 3 6 6 4 4 5 6 9 10 4 2 4 1 8 5 4 3 1 2 1 3 2 5 6 5 3 3 3 5 5 3 5 6 13 19 14
21 19 14 13 14 12 12 11 9 8 6 5 5 4 4 2 2 2 3 5 8 5 5 6 7 6 5 6 8 2 3 1 2 4 2 2 2 2 2 1 2 1 5 5 6 5 2 3 4 5 12 16 18 12
20 18 15 13 14 13 11 10 10 10 8 6 5 3 4 3 2 2 2 6 2 2 5 5 4 3 5 7 10 2 2 1 6 5 5 2 3 3 2 2 2 4 3 4 3 2 4 6 7 11 13 9 10 8
19 19 16 15 15 12 11 9 9 9 8 8 5 3 4 3 2 1 0 6 4 2 2 2 3 0 1 1 5 9 11 10 8 4 3 2 2 3 3 3 3 3 3 5 1 3 4 11 14 16 15 12 13 12
18 18 17 15 15 12 10 9 8 8 8 8 7 5 3 4 4 3 2 2 5 3 2 6 1 3 1 3 3 6 6 9 5 3 3 2 3 4 2 2 1 3 5 4 5 10 10 8 14 20 20 17 14 9
18 19 17 15 13 10 9 8 8 8 8 8 8 7 5 5 3 5 2 4 3 5 3 2 3 1 1 2 4 5 5 4 3 2 2 2 1 2 3 2 4 7 9 8 2 9 15 5 7 15 19 16 12 10
19 18 15 15 11 9 9 8 7 7 7 8 7 8 6 6 4 5 1 2 3 3 2 4 6 3 3 4 5 6 5 2 2 2 1 1 1 2 3 3 8 8 7 7 9 8 9 9 7 15 17 15 12 8
20 18 16 15 11 9 9 6 7 7 6 7 6 8 7 5 5 4 3 4 3 2 2 1 4 2 5 2 2 4 1 1 1 0 1 3 2 2 0 9 11 11 5 3 4 10 6 6 9 11 18 16 16 13
20 18 17 14 11 10 8 6 6 6 6 5 6 6 5 5 3 2 2 4 5 3 2 1 2 3 3 2 1 2 1 1 2 1 3 4 1 3 7 8 14 12 8 7 5 7 5 5 9 14 18 15 16 13
20 19 18 15 12 10 7 5 6 7 7 7 9 3 4 4 3 2 1 1 4 4 3 3 3 2 5 4 1 2 1 1 1 4 3 2 4 11 10 9 10 10 10 9 12 11 10 8 9 12 17 13 11 8
23 21 19 15 12 10 6 5 8 9 9 9 4 2 3 4 2 1 1 2 3 3 6 5 8 2 4 3 2 0 2 0 1 4 2 1 3 6 12 10 6 10 10 10 12 8 7 2 4 8 11 14 12 12
23 22 19 15 12 10 7 7 11 12 10 7 5 4 3 2 2 1 2 3 3 4 4 6 7 8 3 3 3 1 2 2 4 1 2 2 4 9 15 9 6 6 5 8 11 12 8 5 6 5 4 7 9 9
23 22 19 15 13 9 8 9 13 13 9 6 3 2 1 2 2 4 5 3 2 4 5 7 4 7 4 2 5 3 2 4 2 1 3 5 4 11 12 8 8 6 5 10 12 9 6 4 7 6 4 5 4 9
24 21 18 15 13 9 9 10 15 14 8 3 4 2 3 3 4 5 4 4 7 4 5 10 8 4 3 3 3 3 4 1 1 2 5 3 9 15 12 8 7 7 7 12 11 9 6 8 9 6 5 6 6 6
23 20 16 14 11 10 10 13 17 16 5 3 3 3 6 10 8 7 10 10 7 3 8 7 6 5 4 3 1 2 1 3 4 4 4 6 13 12 11 8 7 7 6 12 12 8 6 8 9 7 8 7 8 8
20 17 15 13 11 10 12 14 17 9 2 3 5 3 6 4 6 4 5 8 4 4 6 5 4 5 4 3 2 5 4 5 4 4 6 11 13 12 10 6 7 6 12 12 10 5 3 4 5 6 7 8 10 12
19 12 15 13 14 13 18 15 11 5 4 3 6 9 13 13 12 8 6 4 4 9 2 3 4 4 3 0 2 4 4 3 11 13 7 13 11 8 8 7 7 6 14 14 9 4 3 4 6 8 9 9 11 13
15 14 15 15 15 15 17 8 5 4 5 8 6 4 7 8 9 9 3 3 7 7 7 3 4 3 5 4 3 2 3 7 9 4 14 11 6 7 7 8 8 11 11 9 8 7 7 9 10 11 12 14 18 19
16 16 17 19 19 10 6 7 3 3 7 8 10 14 13 12 15 12 9 6 7 10 9 10 4 4 4 5 7 7 4 3 7 8 4 6 5 6 6 9 8 11 10 11 10 9 10 11 14 16 18 22 25 20
16 16 19 23 16 4 4 4 5 4 5 4 8 11 9 11 17 16 9 8 13 9 4 3 6 8 7 7 5 11 10 8 19 23 25 15 13 10 9 11 12 12 11 9 9 9 12 16 18 20 22 23 20 9
17 17 17 18 9 1 3 4 5 5 5 6 7 8 6 11 15 18 19 12 11 6 7 13 18 19 16 15 14 12 13 15 16 21 24 21 14 14 12 12 12 15 15 14 15 15 16 19 19 18 17 14 10 13
18 16 13 15 5 2 4 6 5 4 4 6 6 6 4 4 7 11 10 12 9 19 22 22 23 22 22 21 18 17 17 16 16 18 19 17 17 18 17 13 15 19 18 15 16 16 17 17 16 12 11 9 7 6
16 14 10 5 4 4 4 5 4 4 3 3 3 2 3 4 5 9 6 9 17 27 30 31 30 27 24 22 24 20 19 19 18 17 18 18 22 15 15 16 17 19 20 18 14 16 18 19 14 10 7 9 11 11
16 7 4 4 5 4 3 4 5 4 3 3 2 3 3 4 2 5 3 6 21 20 20 22 23 27 25 24 25 23 20 20 21 20 12 10 13 19 18 17 17 18 19 20 22 24 23 21 17 13 12 12 14 15
5 5 4 5 4 3 2 3 3 2 3 3 2 3 3 2 1 3 3 6 17 15 12 15 19 20 22 19 20 21 21 22 24 21 13 13 15 12 12 14 14 10 12 15 15 17 16 20 18 17 16 17 16 14
1 5 8 6 4 5 4 2 4 6 3 3 4 3 2 1 2 4 3 3 2 4 5 1 7 13 16 14 17 19 19 18 18 22 21 17 18 17 13 13 14 15 14 17 19 19 15 16 15 17 17 17 17 17
2 4 7 7 5 4 4 7 8 3 3 4 2 2 1 2 4 4 2 2 2 4 1 2 3 7 10 8 8 12 11 15 17 11 5 15 14 15 15 13 15 16 13 14 16 15 15 16 14 14 15 14 15 18
6 4 4 3 6 8 4 2 3 3 3 4 2 3 5 5 3 1 1 5 8 5 6 7 8 6 6 13 10 7 8 12 14 13 8 11 13 15 15 15 17 15 14 13 17 17 17 14 15 13 15 14 13 16
5 5 3 7 8 7 7 8 5 4 3 3 1 2 4 4 11 15 16 12 11 6 4 4 6 7 5 7 9 7 8 9 14 16 13 11 12 14 12 9 14 17 17 18 20 22 21 18 15 15 15 15 15 13
7 10 5 5 4 6 7 9 5 3 4 4 7 15 25 23 19 17 18 15 13 12 9 8 4 4 4 4 7 10 12 11 10 11 12 11 11 5 4 6 8 8 11 13 18 21 22 20 21 23 22 22 22 19
5 7 7 6 4 7 9 12 16 19 17 16 18 22 27 28 27 20 11 9 9 9 9 9 5 4 5 4 4 4 5 8 9 7 10 10 9 5 6 7 5 7 9 12 11 14 20 24 26 28 30 28 24 23
8 9 4 2 5 11 15 14 13 10 15 18 22 21 19 13 14 17 10 4 9 11 6 6 6 3 2 2 4 4 2 3 6 7 7 8 7 7 8 9 9 5 7 9 13 17 20 22 22 20 22 22 22 22
11 8 6 4 4 4 4 6 5 5 8 9 16 21 20 13 6 6 9 9 15 12 9 10 5 5 6 5 6 4 7 6 7 9 9 11 7 7 7 6 7 9 13 16 16 15 14 15 15 15 11 11 14 16
Wind_Direction
296 297 289 288 293 298 300 304 313 312 310 320 312 277 279 346 12 102 70 359 2 308 295 333 341 337 337 6 108 323 343 17 40 62 97 205 114 231 75 157 183 161 147 186 89 91 271 164 108 160 188 153 173 184
290 291 282 281 285 288 288 283 290 294 294 306 321 261 260 291 323 353 158 321 303 273 274 300 295 350 352 13 344 63 77 111 109 93 65 98 65 54 134 187 12 24 172 180 165 210 235 192 226 203 185 180 189 196
282 280 278 278 278 282 282 284 282 278 270 274 291 288 260 263 275 310 340 358 231 282 277 284 23 68 358 12 359 84 110 304 87 74 144 143 87 126 116 256 75 336 136 99 86 210 174 161 183 193 190 204 194 202
273 271 275 273 271 281 282 277 278 277 264 247 258 288 253 249 222 219 44 20 33 354 19 243 355 353 29 88 42 108 128 128 128 118 91 119 128 184 196 183 139 199 105 136 261 256 199 224 217 206 210 214 200 202
266 266 267 263 262 272 279 276 274 270 255 237 241 261 244 214 218 235 209 29 32 9 295 301 134 54 66 160 144 132 146 137 104 81 71 225 163 117 41 83 295 184 172 150 220 209 199 224 232 219 212 210 205 198
257 258 261 253 253 263 270 276 280 263 251 236 233 234 235 203 229 177 240 250 328 325 294 342 325 347 107 336 192 148 148 104 91 106 180 213 199 159 104 164 254 238 222 224 254 225 211 244 215 218 217 212 209 214
248 251 246 239 242 255 267 274 280 258 244 231 227 223 212 201 207 202 270 281 300 300 280 319 329 195 217 199 147 143 140 145 156 150 136 355 82 139 109 171 207 195 207 224 247 237 212 233 251 236 223 220 218 222
236 239 228 226 231 249 262 277 277 241 230 220 221 206 198 203 199 203 257 267 277 249 262 101 277 294 188 137 152 199 137 42 34 359 154 209 132 86 229 242 204 188 217 213 241 229 237 280 254 248 218 220 220 228
231 227 218 219 227 239 250 272 262 222 198 206 185 181 170 176 192 188 264 284 253 235 237 152 156 234 181 181 2 169 213 25 307 221 239 148 352 213 225 242 214 212 208 194 192 181 218 259 266 239 222 225 230 233
224 215 210 212 219 231 233 257 229 195 175 163 153 157 162 166 199 258 248 252 208 217 227 236 216 265 176 178 128 125 81 92 360 257 144 116 243 251 261 236 203 204 201 198 173 182 191 203 232 236 229 236 255 268
210 203 206 209 215 221 216 234 203 180 163 161 157 157 157 176 187 206 219 199 207 249 210 222 206 206 187 145 168 160 161 83 43 270 132 310 284 236 197 185 210 230 233 242 243 258 225 259 291 258 227 246 254 252
197 201 202 204 215 212 206 218 196 180 168 164 140 129 142 182 189 133 247 284 207 226 209 190 189 193 164 151 110 83 112 50 249 294 79 279 254 210 191 198 222 195 222 258 232 206 220 256 290 216 232 229 241 242
195 198 198 200 211 198 205 208 194 181 156 142 143 143 201 199 60 193 200 249 256 219 204 175 152 161 145 129 83 88 86 239 324 15 228 228 277 180 188 189 192 209 254 206 197 213 220 257 223 227 252 247 285 273
192 194 193 200 202 192 204 201 181 171 163 168 153 336 193 230 235 200 197 202 223 244 228 180 142 143 117 91 135 120 238 103 282 267 241 243 204 189 194 207 204 220 205 209 205 199 234 259 237 239 246 286 267 318
186 187 190 196 184 190 200 189 173 167 179 170 182 224 215 237 263 255 280 263 262 243 174 135 81 73 26 109 179 100 221 247 210 232 235 230 180 188 194 196 220 219 230 191 189 208 239 240 235 237 266 276 258 293
177 180 187 181 180 184 182 167 168 172 210 209 231 264 251 279 297 311 250 250 188 115 123 113 108 109 254 178 121 216 172 216 249 234 275 174 183 197 199 214 212 196 184 190 187 196 258 211 240 276 286 287 289 296
173 177 176 174 175 171 160 157 163 197 228 231 244 243 262 277 269 294 303 296 209 176 158 90 102 181 115 228 230 191 203 245 303 300 210 186 196 209 206 201 205 214 196 188 194 239 265 235 260 260 273 283 292 297
171 165 171 172 168 161 155 160 173 207 243 244 242 250 225 253 283 295 336 268 190 189 155 171 147 155 184 205 231 226 62 17 343 263 173 185 208 215 213 209 207 191 192 206 225 254 225 254 269 281 294 303 305 301
162 161 161 158 152 136 158 183 205 253 248 267 264 261 264 268 277 262 302 301 225 191 167 167 200 186 215 202 178 167 158 312 323 315 229 200 229 243 235 219 217 212 217 219 234 250 264 272 278 287 296 303 307 297
148 144 151 151 151 136 152 168 191 247 252 249 247 249 244 248 264 262 265 281 205 171 176 184 212 209 202 225 236 243 239 203 162 212 226 233 233 241 230 230 222 216 216 216 235 256 271 281 286 293 300 299 308 308
147 149 161 169 174 194 197 194 215 242 261 254 277 246 250 234 239 241 250 243 207 212 210 222 240 248 241 260 272 234 226 217 214 220 244 258 220 234 231 226 218 220 228 237 253 265 274 288 303 306 288 284 271 303
153 162 167 174 198 231 265 216 238 281 247 261 276 233 241 225 224 228 229 210 226 227 231 240 247 258 260 255 256 258 242 228 228 239 235 245 255 241 231 217 215 224 236 246 261 280 293 296 293 269 267 262 259 293
143 146 143 165 189 218 260 209 237 234 221 249 239 236 238 230 230 211 214 234 247 250 247 248 256 263 261 259 251 259 247 229 239 244 258 257 246 239 239 226 223 235 246 257 269 281 295 302 265 250 261 254 259 272
145 148 171 193 210 252 248 226 223 257 259 261 241 257 237 234 206 206 240 237 254 261 254 252 254 255 256 251 251 247 241 239 248 247 261 258 234 235 237 237 243 245 257 272 282 285 288 293 256 252 261 263 262 264
153 185 192 226 213 236 242 250 209 231 247 242 255 276 267 237 213 238 227 263 281 284 267 257 253 251 248 254 250 248 245 243 241 245 240 243 238 247 240 245 247 252 266 284 285 289 276 265 261 260 264 265 267 277
187 205 190 205 207 187 228 223 213 210 221 237 245 253 244 200 242 250 242 301 284 18 13 312 230 244 248 237 239 242 243 247 240 239 242 240 224 227 242 252 255 267 259 274 261 274 278 267 259 257 260 271 270 272
263 230 220 220 237 253 265 255 264 260 232 218 232 247 171 292 248 256 308 35 33 341 272 156 326 298 267 238 267 247 246 253 235 260 268 213 212 225 239 253 254 254 280 286 264 249 272 253 263 255 257 286 287 285
244 273 212 227 225 233 232 283 290 231 228 212 233 216 195 204 245 43 24 338 327 286 258 264 287 301 261 239 266 254 231 219 223 219 246 253 234 230 241 251 256 249 257 254 241 253 254 254 273 265 270 282 294 296
241 238 264 256 248 219 217 202 226 264 232 196 144 279 285 306 330 332 328 322 329 320 303 316 309 290 262 235 213 220 218 212 200 207 226 220 213 228 239 253 252 244 242 244 246 250 248 258 265 272 281 276 275 280
242 231 236 248 227 212 220 218 232 271 247 248 265 276 290 293 300 312 308 303 292 310 301 317 317 294 303 251 211 214 213 217 222 220 215 217 218 224 287 300 274 259 252 262 259 248 251 263 269 268 266 273 270 270
231 208 216 235 248 231 245 283 278 277 274 265 262 261 270 287 303 309 291 279 287 292 287 296 274 269 316 303 257 274 252 209 193 197 210 219 239 277 264 259 280 272 256 249 249 260 271 273 271 271 272 276 278 274
208 214 219 229 264 282 283 275 273 256 257 252 253 255 263 273 290 303 292 277 307 265 279 252 223 216 80 338 265 262 211 184 197 196 185 193 215 252 233 239 252 236 227 258 274 281 281 277 276 274 272 272 273 278
213 211 213 261 273 275 262 225 234 245 226 234 244 244 250 250 247 264 277 314 332 325 234 225 218 254 296 260 227 249 244 233 231 231 224 218 252 261 237 225 258 285 299 308 315 318 312 300 287 280 279 273 276 282
Height
1532 1530 1528 1527 1526 1526 1525 1524 1523 1521 1520 1519 1519 1518 1517 1517 1517 1517 1516 1514 1514 1512 1509 1509 1509 1509 1509 1507 1508 1504 1504 1500 1502 1514 1520 1523 1524 1522 1526 1525 1528 1533 1543 1548 1554 1556 1554 1534 1536 1543 1541 1540 1543 1545
1528 1526 1524 1523 1523 1522 1522 1521 1521 1520 1519 1519 1518 1517 1517 1516 1516 1516 1516 1514 1513 1513 1510 1510 1509 1508 1507 1506 1504 1503 1506 1504 1507 1514 1519 1522 1523 1527 1533 1535 1525 1531 1530 1538 1541 1543 1532 1532 1533 1533 1534 1536 1539 1542
1523 1522 1520 1520 1520 1519 1518 1518 1518 1518 1518 1518 1517 1516 1516 1516 1516 1516 1515 1514 1513 1512 1510 1509 1509 1509 1507 1507 1505 1502 1505 1507 1505 1508 1513 1519 1523 1526 1533 1531 1524 1524 1524 1533 1535 1534 1533 1533 1532 1533 1534 1536 1538 1540
1518 1517 1517 1516 1516 1516 1516 1515 1514 1515 1515 1516 1516 1516 1515 1515 1515 1515 1515 1514 1513 1513 1512 1510 1508 1508 1508 1508 1507 1506 1506 1508 1509 1511 1512 1518 1522 1520 1528 1524 1526 1525 1524 1532 1534 1532 1532 1531 1530 1531 1532 1534 1535 1537
1513 1513 1512 1512 1513 1513 1513 1512 1512 1512 1513 1514 1514 1514 1514 1514 1515 1515 1516 1515 1514 1516 1513 1509 1508 1508 1508 1508 1508 1508 1509 1510 1509 1510 1513 1518 1516 1519 1522 1524 1525 1521 1524 1530 1532 1522 1523 1524 1524 1527 1529 1530 1532 1532
1507 1508 1508 1509 1510 1510 1510 1510 1510 1510 1511 1511 1512 1513 1513 1513 1514 1515 1516 1516 1515 1515 1513 1511 1509 1507 1507 1508 1509 1509 1510 1509 1510 1511 1513 1514 1514 1516 1525 1529 1519 1518 1518 1519 1520 1519 1520 1521 1522 1523 1525 1527 1528 1529
1502 1504 1504 1506 1507 1508 1508 1508 1508 1508 1509 1509 1510 1511 1512 1513 1514 1516 1517 1516 1515 1514 1513 1511 1508 1508 1508 1508 1509 1510 1510 1510 1512 1512 1512 1512 1513 1514 1522 1527 1515 1516 1517 1517 1517 1518 1520 1519 1520 1520 1521 1524 1526 1527
1497 1499 1500 1502 1504 1505 1506 1506 1506 1506 1507 1508 1508 1510 1511 1512 1514 1515 1515 1515 1515 1514 1514 1513 1510 1508 1508 1509 1509 1510 1510 1510 1511 1512 1512 1512 1514 1515 1520 1512 1513 1515 1516 1517 1517 1517 1518 1518 1518 1518 1520 1522 1524 1524
1492 1495 1497 1499 1502 1503 1504 1504 1504 1504 1505 1507 1508 1509 1511 1512 1514 1514 1514 1514 1514 1516 1512 1512 1514 1514 1507 1508 1509 1510 1511 1513 1513 1512 1512 1513 1517 1518 1510 1509 1510 1513 1514 1514 1516 1516 1517 1517 1516 1516 1518 1520 1522 1522
1488 1491 1494 1496 1499 1501 1501 1502 1503 1504 1504 1506 1509 1510 1510 1511 1513 1513 1513 1513 1513 1512 1511 1510 1508 1508 1508 1508 1510 1512 1512 1515 1517 1512 1510 1513 1513 1505 1505 1506 1508 1510 1512 1513 1514 1515 1515 1515 1515 1515 1515 1518 1519 1520
1483 1487 1491 1494 1496 1498 1499 1501 1502 1504 1505 1506 1508 1509 1510 1511 1512 1512 1512 1513 1512 1510 1507 1505 1505 1506 1508 1508 1509 1511 1514 1516 1521 1516 1513 1516 1514 1502 1503 1505 1507 1508 1510 1511 1512 1513 1513 1514 1514 1513 1515 1515 1516 1517
1480 1485 1488 1492 1495 1496 1497 1499 1501 1503 1504 1507 1508 1509 1510 1511 1511 1512 1512 1510 1509 1506 1501 1501 1502 1504 1506 1507 1508 1512 1514 1517 1519 1512 1513 1514 1503 1499 1502 1505 1506 1507 1508 1509 1509 1511 1512 1512 1512 1512 1513 1513 1514 1514
1477 1482 1486 1490 1493 1494 1496 1498 1501 1503 1505 1507 1508 1509 1510 1511 1514 1511 1509 1508 1507 1499 1497 1498 1500 1502 1506 1506 1509 1511 1515 1519 1512 1514 1512 1506 1498 1499 1502 1504 1505 1506 1506 1507 1508 1510 1510 1510 1511 1511 1511 1511 1512 1512
1475 1480 1484 1488 1490 1492 1495 1497 1500 1503 1506 1506 1507 1511 1509 1509 1505 1501 1499 1498 1496 1495 1495 1496 1498 1500 1503 1506 1510 1512 1512 1512 1514 1514 1509 1498 1495 1498 1501 1502 1504 1505 1505 1506 1508 1509 1510 1509 1510 1510 1510 1510 1510 1510
1474 1479 1483 1486 1488 1491 1494 1496 1499 1503 1505 1505 1506 1505 1503 1498 1495 1495 1495 1495 1493 1494 1493 1495 1498 1500 1504 1507 1509 1511 1510 1512 1512 1508 1499 1492 1495 1497 1499 1501 1502 1503 1504 1505 1507 1509 1509 1509 1509 1510 1509 1509 1509 1508
1474 1478 1481 1484 1487 1490 1493 1496 1500 1503 1504 1504 1503 1499 1495 1496 1493 1492 1492 1492 1491 1493 1493 1494 1500 1509 1513 1508 1508 1509 1511 1510 1503 1496 1493 1493 1495 1497 1499 1500 1501 1502 1503 1505 1507 1508 1508 1509 1509 1509 1508 1507 1506 1506
1474 1476 1479 1483 1486 1490 1493 1497 1501 1502 1502 1500 1496 1494 1495 1495 1493 1491 1491 1491 1491 1493 1495 1495 1500 1502 1504 1507 1506 1502 1503 1497 1494 1493 1492 1495 1496 1497 1498 1500 1501 1502 1502 1505 1506 1507 1507 1507 1508 1507 1507 1506 1505 1504
1472 1475 1479 1483 1487 1490 1495 1497 1499 1500 1498 1495 1493 1491 1491 1491 1490 1490 1490 1490 1491 1491 1493 1495 1497 1499 1501 1501 1500 1497 1496 1493 1492 1491 1493 1496 1497 1498 1498 1499 1500 1501 1502 1504 1505 1505 1506 1506 1506 1505 1505 1503 1502 1501
1472 1475 1479 1483 1487 1492 1495 1497 1498 1496 1493 1491 1488 1488 1488 1487 1487 1487 1487 1488 1489 1489 1490 1493 1493 1496 1495 1492 1492 1492 1492 1490 1493 1497 1496 1494 1496 1497 1497 1498 1499 1500 1500 1501 1503 1504 1504 1504 1503 1503 1501 1500 1498 1495
1474 1477 1480 1484 1488 1491 1493 1494 1495 1494 1490 1486 1484 1483 1484 1483 1483 1483 1485 1486 1487 1487 1488 1488 1487 1486 1485 1487 1488 1489 1489 1489 1486 1492 1491 1491 1492 1494 1495 1496 1497 1498 1499 1499 1501 1501 1501 1500 1500 1499 1497 1495 1493 1490
1476 1479 1483 1486 1489 1490 1491 1490 1491 1490 1486 1483 1480 1480 1479 1478 1478 1479 1480 1482 1483 1481 1480 1479 1479 1480 1483 1484 1485 1487 1487 1487 1486 1487 1487 1487 1489 1490 1491 1493 1494 1495 1496 1497 1497 1497 1497 1496 1495 1494 1491 1490 1489 1488
1477 1481 1485 1488 1489 1490 1489 1488 1487 1485 1485 1480 1478 1476 1474 1473 1473 1474 1476 1475 1473 1471 1472 1473 1473 1475 1477 1479 1480 1481 1481 1482 1484 1485 1485 1485 1484 1486 1487 1489 1490 1491 1492 1493 1493 1493 1493 1492 1491 1490 1488 1487 1487 1486
1480 1483 1486 1487 1489 1489 1487 1486 1486 1482 1481 1476 1474 1472 1471 1469 1467 1468 1468 1465 1463 1462 1463 1465 1466 1468 1470 1472 1474 1475 1477 1477 1478 1478 1479 1479 1480 1482 1484 1486 1488 1488 1489 1489 1490 1490 1489 1489 1488 1486 1485 1484 1484 1483
1482 1484 1484 1485 1486 1485 1484 1482 1481 1479 1476 1474 1472 1469 1467 1465 1464 1464 1463 1458 1455 1456 1456 1457 1459 1461 1463 1465 1466 1467 1469 1471 1472 1474 1474 1474 1475 1477 1481 1483 1484 1485 1486 1486 1486 1485 1484 1484 1483 1483 1482 1482 1481 1480
1484 1485 1485 1483 1483 1484 1481 1478 1477 1477 1475 1472 1470 1467 1463 1462 1463 1461 1457 1451 1449 1449 1450 1451 1454 1455 1456 1458 1459 1461 1463 1465 1466 1468 1471 1472 1473 1475 1477 1478 1479 1480 1481 1481 1480 1478 1478 1478 1479 1478 1479 1478 1477 1477
1481 1480 1481 1478 1478 1479 1477 1475 1474 1473 1472 1470 1466 1463 1461 1461 1461 1458 1451 1448 1447 1448 1447 1446 1448 1450 1451 1452 1453 1455 1457 1459 1461 1462 1464 1466 1468 1471 1472 1474 1475 1475 1477 1477 1476 1475 1475 1475 1474 1475 1475 1474 1473 1473
1479 1476 1475 1475 1475 1474 1473 1471 1470 1469 1467 1466 1463 1461 1460 1460 1457 1450 1448 1448 1448 1448 1448 1448 1449 1449 1448 1449 1450 1451 1452 1454 1456 1458 1459 1462 1465 1467 1469 1470 1471 1471 1472 1472 1471 1472 1472 1472 1471 1471 1471 1471 1470 1468
1476 1473 1473 1472 1472 1471 1471 1470 1468 1463 1460 1460 1460 1458 1457 1456 1452 1449 1449 1448 1447 1446 1447 1447 1447 1447 1447 1446 1447 1448 1448 1450 1452 1455 1457 1458 1460 1462 1465 1467 1468 1469 1469 1469 1469 1469 1468 1469 1468 1467 1467 1467 1466 1465
1472 1471 1471 1468 1468 1467 1466 1466 1464 1461 1459 1458 1458 1457 1454 1451 1450 1450 1449 1448 1447 1447 1446 1446 1446 1445 1445 1444 1445 1446 1447 1448 1450 1452 1454 1456 1459 1461 1462 1463 1464 1464 1465 1465 1464 1464 1465 1465 1464 1463 1462 1462 1462 1461
1467 1467 1467 1464 1462 1461 1460 1460 1459 1458 1458 1457 1456 1453 1450 1448 1447 1447 1446 1445 1445 1445 1445 1445 1444 1443 1444 1444 1444 1446 1446 1448 1449 1451 1452 1454 1456 1459 1459 1460 1460 1460 1460 1461 1460 1461 1461 1461 1460 1458 1457 1456 1456 1456
1463 1462 1462 1460 1458 1456 1456 1456 1455 1454 1454 1453 1452 1451 1448 1447 1444 1442 1441 1442 1442 1442 1443 1443 1443 1442 1442 1442 1443 1443 1444 1445 1446 1448 1451 1453 1455 1457 1458 1458 1458 1458 1457 1457 1457 1457 1457 1455 1454 1452 1452 1451 1451 1450
1457 1458 1457 1457 1455 1453 1452 1450 1448 1446 1445 1446 1445 1446 1446 1446 1443 1439 1438 1439 1439 1440 1441 1440 1440 1441 1442 1443 1443 1444 1445 1446 1447 1449 1451 1452 1454 1455 1455 1456 1456 1455 1455 1455 1454 1453 1451 1449 1447 1445 1443 1444 1445 1446
1453 1454 1454 1455 1452 1449 1446 1445 1443 1440 1438 1437 1436 1438 1439 1441 1441 1438 1437 1436 1436 1436 1437 1439 1440 1441 1442 1442 1443 1443 1444 1445 1446 1448 1450 1452 1453 1454 1455 1455 1455 1454 1453 1451 1448 1446 1443 1441 1439 1439 1439 1440 1442 1442